Location: Glums�
(55.3568°N, 11.6856°E)
Time: 18:10:02
(UTC+00:00)

AQUA - Pass Details

Date: 07 June 2020
Orbit: 702 x 703 km, 98.2° (Epoch: 04 July)

Event Time Altitude Azimuth Distance (km) Brightness Sun altitude
Rises 01:05:50 0° 17° (NNE) 3,106 9.3 -8.2°
Reaches altitude 10° 01:08:08 10° 21° (NNE) 2,183 8.1 -8.0°
Maximum altitude 01:12:51 59° 101° (ESE) 813 4.3 -7.7°
Drops below altitude 10° 01:17:33 10° 182° (S) 2,167 5.8 -7.4°
Enters shadow 01:18:19 - 184° (S) 2,473 6.1 -7.4°
